Regional Weather Roundup
Issued by NWS

Home | Current Version | Previous Version | Text Only | Print | Product List | Glossary On
Versions: 1 2 3 4 5 6 7 8 9 10 11 12 13 14 15 16 17 18 19 20 21 22 23 24 25 26 27 28 29 30 31 32 33 34 35 36 37 38 39 40 41 42 43 44 45 46 47 48 49 50
000
ASPQ40 PGUM 241312
RWRPQ
WEATHER ROUNDUP FOR THE MARIANAS AND MICRONESIA
NATIONAL WEATHER SERVICE TIYAN GU
1100 PM CHST TUE JAN 24 2017

GUZ001>004-241400-
MARIANA ISLANDS-

CITY           SKY/WX    TMP DP  RH WIND       PRES   REMARKS
GUAM AIRPORT   PTCLDY    79  73  83 NE16      30.00F
ANDERSEN AFB   MOCLDY    77  72  83 NE21G31   30.01F
ROTA AIRPORT   NOT AVBL
TINIAN AP      NOT AVBL
SAIPAN AP      PTCLDY    75  70  83 NE16G24   30.02S

$$

PMZ161-241400-
REPUBLIC OF PALAU-

CITY           SKY/WX    TMP DP  RH WIND       PRES   REMARKS
KOROR AP       CLOUDY    81  77  89 NE12G22   29.87S
KOROR WSO      CLOUDY    82  73  74 N6        29.89F

$$

PMZ171>174-241400-
FEDERATED STATES OF MICRONESIA-

CITY           SKY/WX    TMP DP  RH WIND       PRES   REMARKS
YAP AIRPORT    CLOUDY    79  75  89 NE14G25   29.89S
CHUUK AP       CLOUDY    82  81  94 N9        29.83S HX  95
POHNPEI AP     NOT AVBL
POHNPEI WSO    CLOUDY    82  75  78 NE13      29.86S
KOSRAE AP      NOT AVBL

$$

PMZ181-241400-
REPUBLIC OF THE MARSHALL ISLANDS-

CITY           SKY/WX    TMP DP  RH WIND       PRES   REMARKS
KWAJALEIN AP   MOCLDY    82  75  78 E22       29.86F
MAJURO AP      NOT AVBL
MAJURO WSO     MOCLDY    81  73  78 NE6       29.84F

$$




USA.gov is the U.S. government's official web portal to all federal, state and local government web resources and services.